Location: Norderney
(53.7000°N, 7.1500°E)
Time: 16:12:47
(UTC+02:00)

ACS3 Solar Sail - Pass Details

Date: 16 August 2024
Orbit: 980 x 1030 km, 97.4° (Epoch: 08 September)

Event Time Altitude Azimuth Distance (km) Brightness Sun altitude
Exits shadow 21:43:02 - 158° (SSE) 3,613 4.3 -6.8°
Reaches altitude 10° 21:45:10 10° 157° (SSE) 2,797 3.7 -7.0°
Maximum altitude 21:51:30 78° 73° (ENE) 1,057 2.0 -7.8°
Drops below altitude 10° 21:57:57 10° 348° (NNW) 2,852 5.0 -8.6°
Sets 22:00:29 0° 348° (NNW) 3,813 5.8 -8.9°
